Вернуться в каталог

SL-8 DEB *

АктивенLEO
NORAD 14802·DEBRIS·🇷🇺 Russia

Запущен Jul 1, 1977 с Plesetsk Cosmodrome

Loading…

Ближайшие Пролёты (ближайшие 24 часа)

TLE

СвежийSource: Space-Track

Эпоха: Sep 14, 2026, 12:59 UTC

1 14802U 77059C   26257.54157310  .00002911  00000-0  39247-3 0  9992
2 14802  74.0518  34.0616 0008993 123.7402   2.0183 14.79614617380315

Отслеживайте SL-8 DEB * в реальном времени с AllMySat

Download on the App Store